Regional Weather Roundup
Issued by NWS

Home | Current Version | Previous Version | Graphics & Text | Print | Product List | Glossary On
Versions: 1 2 3 4 5 6 7 8 9 10 11 12 13 14 15 16 17 18 19 20 21 22 23 24 25 26 27 28 29 30 31 32 33 34 35 36 37 38 39 40 41 42 43 44 45 46 47 48 49 50
000
ASUS44 KMEG 280600
RWRTN
TENNESSEE HOURLY STATE WEATHER ROUNDUP
NATIONAL WEATHER SERVICE MEMPHIS TN
100 AM CDT MON JUL 28 2014

TNZ002-004-019-021-049-052-054-088>092-280700-
WEST TENNESSEE

CITY           SKY/WX    TMP DP  RH WIND       PRES   REMARKS
MEMPHIS INTL   PTCLDY    83  76  79 NW7       29.96S HX  91
NWS MEMPHIS      N/A     82 N/A N/A MISG        N/A
JACKSON        CLEAR     80  73  79 NW8       29.95R
DYERSBURG      CLEAR     79  61  53 NW3       29.97R
PARIS          CLEAR     72  64  78 N5        29.96S
LEXINGTON      CLEAR     79  73  83 NW6       29.93R
SAVANNAH       PTCLDY    81  81 100 W5        29.94F HX  91
$$

TNZ008-025-027-028-033-062-065-066-280700-
NORTH MIDDLE TENNESSEE

CITY           SKY/WX    TMP DP  RH WIND       PRES   REMARKS
NASHVILLE      PTCLDY    76  72  87 NW6       29.93R
CLARKSVILLE    CLEAR     75  60  59 N10       29.94R
COOKEVILLE     PTCLDY    72  70  94 CALM      29.94R
CROSSVILLE     LGT RAIN  69  67  93 W9        29.97S
$$

TNZ061-075-076-078-094-096-097-280700-
SOUTH MIDDLE TENNESSEE

CITY           SKY/WX    TMP DP  RH WIND       PRES   REMARKS
SHELBYVILLE    CLOUDY    79  70  73 NW9       29.95R
$$

TNZ017-018-042-046-047-280700-
NORTHEAST TENNESSEE

CITY           SKY/WX    TMP DP  RH WIND       PRES   REMARKS
TRI CITIES     CLOUDY    67  64  90 SW7       29.92F
ELIZABETHTON   PTCLDY    64  63  94 VRB3        N/A
$$

TNZ012-013-036-069-073-074-280700-
CENTRAL EAST TENNESSEE

CITY           SKY/WX    TMP DP  RH WIND       PRES   REMARKS
KNOXVILLE      CLOUDY    71  70  96 S5        29.91S
OAK RIDGE      CLOUDY    72  70  93 CALM      29.91F
$$

TNZ083-085-099-280700-
SOUTHEAST TENNESSEE

CITY           SKY/WX    TMP DP  RH WIND       PRES   REMARKS
CHATTANOOGA    CLOUDY    80  66  62 N17G29    29.94R
$$

SKY/WX REPORTED AS FAIR MEANS FEW OR NO CLOUDS BELOW
12 THOUSAND FEET.




USA.gov is the U.S. government's official web portal to all federal, state and local government web resources and services.